Location: Bégole
(43.1574°N, 0.3291°E)
Time: 20:45:28
(UTC+00:00)

BREEZE-M DEB (TANK) - Pass Details

Date: 28 January 2023
Orbit: 426 x 13838 km, 45.9° (Epoch: 20 March)

Event Time Altitude Azimuth Distance (km) Brightness Sun altitude
Rises 17:55:38 0° 264° (W) 2,380 7.6 -9.5°
Reaches altitude 10° 17:57:16 10° 268° (W) 1,570 6.1 -9.7°
Maximum altitude 18:00:12 67° 352° (N) 636 2.6 -10.3°
Enters shadow 18:05:00 14° 75° (ENE) 2,588 5.0 -11.1°
